Location: Coopersdale
(40.3556°N, 78.9372°W)
Time: 09:03:14
(UTC+00:00)

Envisat - Pass Details

Date: 30 November 2020
Orbit: 764 x 766 km, 98.1° (Epoch: 15 January)

Event Time Altitude Azimuth Distance (km) Brightness Sun altitude
Rises 10:57:11 0° 15° (NNE) 3,241 6.2 -15.2°
Reaches altitude 10° 10:59:31 10° 19° (NNE) 2,310 5.5 -14.8°
Maximum altitude 11:04:35 65° 101° (E) 840 3.5 -13.9°
Drops below altitude 10° 11:09:36 10° 183° (S) 2,293 5.6 -13.0°
Sets 11:11:55 0° 187° (S) 3,214 6.4 -12.6°
